[[{"header":{"parameterUnit":"m.s-1","parameterCategory":1,"la1":30.2991,"la2":30.254,"lo1":-89.0895,"lo2":-89.0444,"dy":0.0017,"dx":0.0017,"nx":28,"ny":28,"refTime":"2025-08-17T21:00:00:Z","depth":0,"parameterNumber":2,"parameterNumberName":"U-component_of_WINDS"},"data":[0,0,0,0,0,0,0,0,0,0,0,0,0,0,0,0,0,0,0,0,0,0,0,0,0,0,0,0,0,0,0,0,0,0,0,0,0,0,0,0,0,0,0,0,0,0,0,0,0,0,0,0,0,0,0,0,0,0,1.854,1.8541,0,1.8637,1.8638,1.864,1.8614,1.8612,1.861,1.8609,1.8709,1.8713,1.8718,0,0,0,0,0,0,0,0,0,0,0,0,0,1.8331,1.8335,1.8539,1.8541,1.8542,1.8637,1.8639,1.864,1.8615,1.8612,1.861,1.8608,1.8708,1.8713,1.8718,0,0,0,0,0,0,0,0,0,0,0,0,0,1.8424,1.8336,1.8539,1.8541,1.8542,1.8637,1.8639,1.864,1.8615,1.8612,1.8609,1.8607,1.8706,1.8712,1.8719,1.8819,0,0,1.874,1.8742,0,0,0,0,0,0,0,0,1.8419,1.8432,1.8539,1.8541,1.8542,1.8611,1.8602,1.87,1.8616,1.8587,1.8608,1.8605,1.8679,1.8687,1.8712,1.8823,1.8828,1.874,1.8744,1.8747,1.8749,0,0,0,0,0,0,0,1.8413,1.8428,1.8578,1.8541,1.8543,1.8537,1.8547,1.862,1.8648,1.859,1.8588,1.86,1.8679,1.8706,1.8714,1.8829,1.874,1.8746,1.875,1.8753,1.9027,1.903,0,0,0,0,0,0,1.8405,1.8422,1.8575,1.8581,1.8472,1.8543,1.8554,1.8592,1.8647,1.8653,1.8602,1.8598,1.8696,1.8707,1.8718,1.8839,1.8747,1.8753,1.8757,1.9024,1.9028,1.9031,0,0,0,0,0,0,1.8401,1.8419,1.8571,1.8501,1.852,1.8549,1.8592,1.8595,1.8622,1.8657,1.8662,1.8625,1.8694,1.8708,1.8794,1.8842,1.8756,1.8763,1.902,1.9025,1.903,1.9081,0,0,0,0,0,0,1.8395,1.8417,1.8456,1.8502,1.8524,1.8646,1.8595,1.8599,1.8634,1.8629,1.8679,1.8685,1.8693,1.8784,1.8801,1.8849,1.8768,1.9016,1.9022,1.9028,1.9075,1.9087,1.9097,0,0,0,0,0,1.8387,1.8466,1.8458,1.8476,1.8572,1.8648,1.8661,1.8669,1.8637,1.8676,1.8699,1.8683,1.8834,1.8793,1.8811,1.8863,1.9013,1.9021,1.9028,1.907,1.9084,1.9097,0,0,0,0,0,0,1.8424,1.8472,1.8463,1.856,1.86,1.8644,1.8693,1.8684,1.8734,1.8728,1.8735,1.8747,1.8834,1.8857,1.8811,1.8962,1.8919,1.893,1.8945,1.8959,1.8969,1.8963,1.8773,0,0,0,0,0,1.8443,1.8501,1.854,1.8621,1.8642,1.8664,1.8697,1.87,1.8742,1.8759,1.8788,1.883,1.8886,1.8923,1.8978,1.9078,1.9088,1.9122,1.9133,1.9142,1.9152,1.9207,1.9223,1.9056,1.9056,1.9055,0,0,1.8484,1.8517,1.8553,1.8629,1.8661,1.8721,1.8679,1.8744,1.8788,1.8769,1.8852,1.8874,1.8921,1.9014,1.9057,1.9036,1.9201,1.9151,1.9158,1.9164,1.9216,1.9232,1.9246,1.9061,1.906,1.9059,0,0,1.8589,1.862,1.8691,1.8723,1.8772,1.8786,1.8803,1.8848,1.8863,1.8945,1.8933,1.8985,1.9083,1.9117,1.9147,1.9264,1.9252,1.9282,1.934,1.9393,1.9406,1.9418,1.946,1.9476,1.9291,1.9292,1.9292,0,1.8633,1.8723,1.8729,1.8795,1.8829,1.8814,1.8886,1.8918,1.8981,1.9005,1.8981,1.9103,1.9133,1.9235,1.9263,1.9288,1.9308,1.9277,1.9404,1.9416,1.9427,1.9467,1.9483,1.9295,1.9294,1.9294,1.9294,0,1.8775,1.8837,1.8889,1.8951,1.8991,1.9059,1.9076,1.9115,1.9114,1.9131,1.9216,1.9252,1.9313,1.9337,1.9336,1.9438,1.9424,1.9402,1.9358,1.9446,1.9484,1.95,1.93,1.9298,1.9297,1.9297,0,0,1.8907,1.8971,1.899,1.9018,1.907,1.9118,1.9186,1.9246,1.928,1.9324,1.9382,1.9464,1.9444,1.9478,1.9481,1.9528,1.9619,1.95,1.9501,1.9522,1.9735,1.9752,1.977,1.9611,1.9614,1.9616,1.9731,0,1.9017,1.9137,1.9144,1.9253,1.9311,1.9297,1.9357,1.9395,1.9412,1.9464,1.9483,1.9542,1.951,1.9531,1.9576,1.9599,1.9662,1.959,1.9665,1.9668,1.9655,1.979,1.9808,1.9915,1.9746,1.9748,1.975,0,1.9161,1.921,1.9325,1.9369,1.9393,1.9447,1.9502,1.9551,1.9594,1.9604,1.9642,1.9638,1.9708,1.9661,1.9758,1.9709,1.974,1.9755,1.976,1.9768,1.9715,1.9802,1.9949,1.9965,1.9774,1.9772,1.977,0,1.9247,1.9341,1.9422,1.9446,1.9499,1.9537,1.9561,1.9601,1.9637,1.9685,1.9708,1.9764,1.9795,1.9838,1.985,1.9814,1.9946,1.99,1.9957,1.9956,1.9986,1.9984,2.014,2.0004,2.0004,2.0004,2.0003,0,1.9369,1.944,1.9461,1.9511,1.959,1.9597,1.9675,1.9697,1.9733,1.9787,1.9778,1.9829,1.984,1.9893,1.9903,1.9982,1.9995,2.0005,2.0007,2.0007,2.0006,2.0028,2.0021,2.0008,2.0007,2.0006,2.0006,0,1.9479,1.9495,1.9583,1.9626,1.9638,1.9695,1.9731,1.9779,1.9795,1.9864,1.988,1.9905,1.9967,1.9983,2.0057,2.0063,2.0156,2.0151,2.0142,2.0142,2.0198,2.0192,2.0374,2.0399,2.0246,2.0247,2.0249,0,1.9557,1.9611,1.966,1.9695,1.9721,1.9778,1.9814,1.9823,1.9861,1.9914,1.9956,2.0016,2.0066,2.0166,2.019,2.0247,2.0243,2.0303,2.0252,2.025,2.0245,2.0242,2.0248,2.0313,2.0315,2.0316,2.0317,0,1.9693,1.9698,1.9751,1.9806,1.985,1.9894,1.9936,1.9965,1.998,2.0023,2.0087,2.0125,2.02,2.0261,2.0318,2.0342,2.0333,2.0333,2.0349,2.035,2.0343,2.0348,2.017,2.0329,2.0328,2.0327,2.0326,2.0326,1.979,1.9837,1.9879,1.9938,1.997,2.001,2.0057,2.0079,2.0132,2.0194,2.0196,2.0265,2.0306,2.0382,2.0409,2.0463,2.0445,2.0469,2.0475,2.048,2.0486,2.0333,2.0474,2.0473,2.0473,2.0473,2.0473,0,1.9926,1.9952,2.0006,2.0065,2.0112,2.0098,2.0143,2.0183,2.0244,2.0283,2.0332,2.0405,2.0464,2.0493,2.0551,2.0589,2.0586,2.0604,2.0602,2.0608,2.0498,2.0479,2.0605,2.0605,2.0605,2.0605,2.0605,2.0605,2.0003,2.0083,2.0093,2.019,2.0215,2.0283,2.031,2.0346,2.0378,2.046,2.0508,2.0527,2.0563,2.0623,2.0677,2.0684,2.0706,2.0727,2.0731,2.0629,2.0615,2.0603,2.0584,2.0731,2.0731,2.0837,2.0837,2.0838]},{"header":{"parameterUnit":"m.s-1","parameterCategory":1,"la1":30.2991,"la2":30.254,"lo1":-89.0895,"lo2":-89.0444,"dy":0.0017,"dx":0.0017,"nx":28,"ny":28,"refTime":"2025-08-17T21:00:00:Z","depth":0,"parameterNumber":3,"parameterNumberName":"V-component_of_WINDS"},"data":[0,0,0,0,0,0,0,0,0,0,0,0,0,0,0,0,0,0,0,0,0,0,0,0,0,0,0,0,0,0,0,0,0,0,0,0,0,0,0,0,0,0,0,0,0,0,0,0,0,0,0,0,0,0,0,0,0,0,0.203,0.203,0,0.2078,0.2079,0.2079,0.2071,0.207,0.2069,0.2069,0.2117,0.2119,0.2121,0,0,0,0,0,0,0,0,0,0,0,0,0,0.1926,0.1928,0.2029,0.203,0.2031,0.2078,0.2079,0.208,0.2071,0.207,0.2069,0.2068,0.2116,0.2118,0.2121,0,0,0,0,0,0,0,0,0,0,0,0,0,0.1973,0.1929,0.2029,0.2032,0.2033,0.2078,0.2079,0.208,0.2072,0.207,0.2069,0.2068,0.2115,0.2118,0.2121,0.2165,0,0,0.2131,0.2132,0,0,0,0,0,0,0,0,0.197,0.1977,0.2031,0.2032,0.2033,0.2067,0.206,0.2108,0.2072,0.2057,0.2069,0.2067,0.2101,0.2105,0.2117,0.2168,0.217,0.2131,0.2133,0.2134,0.2135,0,0,0,0,0,0,0,0.1967,0.1974,0.2049,0.2032,0.2033,0.203,0.2036,0.2069,0.2085,0.2058,0.2058,0.2064,0.2101,0.2114,0.2118,0.217,0.2131,0.2133,0.2135,0.2137,0.2259,0.226,0,0,0,0,0,0,0.1963,0.1972,0.2047,0.205,0.1998,0.2033,0.2039,0.2058,0.2085,0.2088,0.2065,0.2063,0.2109,0.2115,0.212,0.2173,0.2134,0.2137,0.2139,0.2257,0.2259,0.2261,0,0,0,0,0,0,0.1961,0.197,0.2045,0.2011,0.202,0.2036,0.2057,0.2059,0.2072,0.209,0.2093,0.2075,0.2109,0.2115,0.2154,0.2175,0.2138,0.2141,0.2256,0.2258,0.226,0.2281,0,0,0,0,0,0,0.1958,0.1969,0.1987,0.2011,0.2022,0.208,0.2059,0.2061,0.2078,0.2076,0.21,0.2103,0.2108,0.215,0.2157,0.2178,0.2143,0.2254,0.2257,0.2259,0.2278,0.2283,0.2288,0,0,0,0,0,0.1954,0.1991,0.1988,0.1997,0.2045,0.2081,0.2087,0.2093,0.2079,0.2097,0.2108,0.2102,0.2171,0.2154,0.2162,0.2185,0.2253,0.2256,0.2259,0.2276,0.2282,0.2288,0,0,0,0,0,0,0.1968,0.1994,0.1991,0.2037,0.2057,0.208,0.2102,0.2099,0.2123,0.212,0.2125,0.2131,0.217,0.2181,0.2161,0.2228,0.221,0.2215,0.222,0.2226,0.2231,0.2227,0.2146,0,0,0,0,0,0.1976,0.2004,0.2025,0.2063,0.2073,0.2086,0.2102,0.2104,0.2125,0.2133,0.2147,0.2167,0.2193,0.221,0.2235,0.2279,0.2284,0.2299,0.2304,0.2307,0.2312,0.2336,0.2342,0.2271,0.2271,0.2271,0,0,0.1994,0.2011,0.2029,0.2066,0.2082,0.211,0.2093,0.2124,0.2144,0.2138,0.2175,0.2186,0.2208,0.225,0.2269,0.226,0.2332,0.2311,0.2314,0.2317,0.2339,0.2346,0.2352,0.2273,0.2273,0.2272,0,0,0.204,0.2056,0.209,0.2106,0.213,0.2138,0.2146,0.2169,0.2176,0.2214,0.221,0.2233,0.2278,0.2294,0.2308,0.2359,0.2354,0.2366,0.2391,0.2414,0.242,0.2425,0.2443,0.2449,0.2371,0.2371,0.2371,0,0.2059,0.2102,0.2107,0.2138,0.2154,0.215,0.2183,0.2198,0.2229,0.224,0.223,0.2285,0.23,0.2345,0.2357,0.2369,0.2377,0.2364,0.2419,0.2424,0.2428,0.2446,0.2452,0.2372,0.2372,0.2372,0.2372,0,0.2123,0.2153,0.2176,0.2207,0.2226,0.2258,0.2267,0.2285,0.2285,0.2294,0.2332,0.2349,0.2377,0.2388,0.2389,0.2433,0.2427,0.2417,0.2399,0.2437,0.2453,0.2459,0.2374,0.2374,0.2373,0.2373,0,0,0.218,0.2213,0.2221,0.2235,0.2261,0.2283,0.2314,0.2342,0.2358,0.2378,0.2404,0.2442,0.2433,0.2449,0.2451,0.2471,0.251,0.2459,0.246,0.2468,0.2559,0.2567,0.2574,0.2507,0.2508,0.2509,0.2558,0,0.2229,0.2285,0.229,0.234,0.2367,0.2363,0.2389,0.2408,0.2416,0.244,0.2448,0.2475,0.2462,0.2471,0.2491,0.2501,0.2528,0.2498,0.253,0.2531,0.2525,0.2583,0.2591,0.2636,0.2564,0.2565,0.2566,0,0.2294,0.2317,0.237,0.2391,0.2403,0.2427,0.2453,0.2475,0.2495,0.25,0.2517,0.2516,0.2547,0.2527,0.2569,0.2548,0.2561,0.2568,0.257,0.2574,0.2551,0.2588,0.2651,0.2657,0.2576,0.2575,0.2574,0,0.233,0.2375,0.2412,0.2424,0.245,0.2467,0.2478,0.2497,0.2513,0.2535,0.2545,0.257,0.2584,0.2603,0.2608,0.2593,0.265,0.263,0.2654,0.2654,0.2667,0.2666,0.2733,0.2675,0.2675,0.2675,0.2675,0,0.2385,0.2417,0.2429,0.2452,0.2488,0.2493,0.2527,0.2538,0.2554,0.2578,0.2575,0.2598,0.2603,0.2627,0.2631,0.2665,0.2671,0.2675,0.2676,0.2676,0.2675,0.2685,0.2682,0.2677,0.2676,0.2676,0.2675,0,0.2432,0.2441,0.2482,0.2503,0.2509,0.2534,0.2552,0.2573,0.2581,0.2611,0.2619,0.263,0.2658,0.2665,0.2697,0.2699,0.274,0.2737,0.2733,0.2733,0.2757,0.2755,0.2832,0.2842,0.2778,0.2778,0.2779,0,0.2467,0.2491,0.2515,0.2531,0.2544,0.257,0.2586,0.2592,0.2609,0.2633,0.2651,0.2678,0.27,0.2743,0.2754,0.2778,0.2776,0.2802,0.278,0.2779,0.2777,0.2776,0.2778,0.2806,0.2807,0.2808,0.2808,0,0.2526,0.253,0.2554,0.258,0.26,0.262,0.264,0.2653,0.2661,0.268,0.2708,0.2725,0.2757,0.2784,0.2808,0.2819,0.2815,0.2815,0.2821,0.2822,0.2819,0.2821,0.2745,0.2813,0.2813,0.2812,0.2812,0.2812,0.2569,0.259,0.261,0.2637,0.2653,0.2671,0.2692,0.2702,0.2726,0.2754,0.2755,0.2785,0.2803,0.2835,0.2847,0.287,0.2862,0.2872,0.2875,0.2877,0.288,0.2814,0.2875,0.2874,0.2874,0.2874,0.2874,0,0.2628,0.2641,0.2666,0.2693,0.2714,0.2709,0.273,0.2747,0.2774,0.2792,0.2813,0.2845,0.287,0.2883,0.2908,0.2924,0.2922,0.293,0.2929,0.2931,0.2885,0.2877,0.2931,0.2931,0.2931,0.2931,0.2931,0.2931,0.2662,0.2699,0.2704,0.2747,0.2759,0.279,0.2802,0.2818,0.2832,0.2868,0.2889,0.2897,0.2913,0.2938,0.2961,0.2964,0.2973,0.2982,0.2984,0.294,0.2935,0.2929,0.2922,0.2984,0.2984,0.3028,0.3029,0.3029]}]]